Find Starlink 5679

NORAD ID: 55467 Int'l Des: 2023-015 Owner: SPXS Country: US Constellation: starlink operational
LEOCIRCULAR

实时位置

正在加载3D地球...

关于 Starlink 5679

正在加载描述...

即将过境

Passes for default location (London). Set your location on the main map for personalized predictions.

高度历史

Loading altitude history...

两行轨道根数

1 55467U 23015U 26121.11998874 .00000791 00000-0 38249-4 0 9994
2 55467 43.0053 32.3534 0000801 255.8110 104.2652 15.27578727178743
Epoch: May 1, 2026 • Age: 12 hours

当前状态

高度 482.9 km
速度 7.63 km/s
星下点 -1.06°S, 131.35°E
发射日期 Feb 2, 2023
运行时间 3.2 years
类型 internet

技术详情

分类 Payload
质量 305.00 kg
干质量 290.00 kg
总质量 305.00 kg
长度 0.20 m
直径 2.80 m
跨度 9.00 m
形状 Box + pan
制造商 SPXS
平台类型 Starlink
阶段状态 In Orbit
所有者/国家 SPXS/US

Most Searched